This demonstration page uses our WeatherBlox Daily Observations layout. Learn more.

Left ArrowRight Arrow

Hourly Observations for December 23, 2021

Temp ( °F °C ) Dew Point ( °F °C ) Humidity (%) Winds ( mph kmh ) Pressure ( in mb ) Visibility ( mi km ) Precip ( " mm )
12:59 am 00:59 Clear 41 5 23 -5 49 49 N 10 17 30.09 1019 10 16 0.00 0.00
1:59 am 01:59 Clear 40 4.4 22 -5.6 49 49 NNE 15 24 30.11 1020 10 16 0.00 0.00
2:59 am 02:59 Clear 40 4.4 22 -5.6 49 49 N 15 24 30.14 1021 10 16 0.00 0.00
3:59 am 03:59 Clear 39 3.9 26 -3.3 60 60 N 9 15 30.16 1021 10 16 0.00 0.00
4:59 am 04:59 Clear 38 3.3 22 -5.6 52 52 N 15 24 30.19 1022 10 16 0.00 0.00
5:59 am 05:59 Clear 37 2.8 23 -5 57 57 N 12 19 30.21 1023 10 16 0.00 0.00
6:59 am 06:59 Clear 37 2.8 25 -3.9 62 62 N 12 19 30.23 1024 10 16 0.00 0.00
7:59 am 07:59 Sunny 37 2.8 24 -4.4 59 59 N 10 17 30.25 1025 10 16 0.00 0.00
8:59 am 08:59 Sunny 39 3.9 24 -4.4 55 55 N 10 17 30.28 1025 10 16 0.00 0.00
9:59 am 09:59 Sunny 40 4.4 22 -5.6 49 49 N 14 22 30.31 1026 10 16 0.00 0.00
10:59 am 10:59 Sunny 41 5 24 -4.4 51 51 N 10 17 30.31 1026 10 16 0.00 0.00
11:59 am 11:59 Sunny 42 5.6 24 -4.4 49 49 VRB 6 9 30.29 1026 10 16 0.00 0.00
12:59 pm 12:59 Sunny 42 5.6 23 -5 47 47 NNE 7 11 30.27 1025 10 16 0.00 0.00
1:59 pm 13:59 Sunny 43 6.1 23 -5 45 45 N 3 6 30.27 1025 10 16 0.00 0.00
2:59 pm 14:59 Sunny 43 6.1 25 -3.9 49 49 NW 5 7 30.27 1025 10 16 0.00 0.00
3:59 pm 15:59 Sunny 42 5.6 25 -3.9 51 51 ENE 5 7 30.27 1025 10 16 0.00 0.00
4:59 pm 16:59 Clear 38 3.3 28 -2.2 68 68 Calm 30.27 1025 10 16 0.00 0.00
5:59 pm 17:59 Mostly Clear 36 2.2 27 -2.8 70 70 SE 5 7 30.25 1024 10 16 0.00 0.00
6:59 pm 18:59 Mostly Clear 37 2.8 27 -2.8 67 67 SE 6 9 30.24 1024 10 16 0.00 0.00
7:59 pm 19:59 Mostly Clear 36 2.2 27 -2.8 70 70 Calm 30.25 1024 10 16 0.00 0.00
8:59 pm 20:59 Mostly Clear 35 1.7 27 -2.8 72 72 SSE 5 7 30.24 1024 9 14 0.00 0.00
9:59 pm 21:59 Mostly Clear 36 2.2 28 -2.2 73 73 S 7 11 30.22 1023 9 14 0.00 0.00
10:59 pm 22:59 Mostly Clear 37 2.8 28 -2.2 70 70 S 7 11 30.22 1023 10 16 0.00 0.00
11:59 pm 23:59 Mostly Clear 37 2.8 31 -0.6 79 79 S 7 11 30.19 1022 10 16 0.00 0.00

Powered by AerisWeather